Weather History for KXNA - January, 2013

Change the Weather History Date:

Wednesday, January 23, 2013

  Actual Average Record
Temperature  
Mean Temperature 42 °F -  
Max Temperature 59 °F - - ()
Min Temperature 26 °F - - ()
Degree Days  
Heating Degree Days 22    
Moisture  
Dew Point 34 °F    
Average Humidity 74    
Maximum Humidity 88    
Minimum Humidity 51    
Precipitation  
Precipitation 0.00 in - - ()
Sea Level Pressure  
Sea Level Pressure 30.22 in    
Wind  
Wind Speed 4 mph (SW)    
Max Wind Speed 12 mph    
Max Gust Speed -    
Visibility 10 miles    
Events      
T = Trace of Precipitation, MM = Missing Value Source: NWS Daily Summary

Daily Weather History Graph

Daily Weather History Graph

Search for Another Location

Airport or City:

Trip Planner

Search our weather history database for the weather conditions in past years. The results will help you decide how hot, cold, wet, or windy it might be!

Date:

Astronomy

Jan. 23, 2013 Rise Set
Actual Time 7:24 AM CST 5:34 PM CST
Civil Twilight 6:56 AM CST 6:02 PM CST
Nautical Twilight 6:25 AM CST 6:33 PM CST
Astronomical Twilight 5:54 AM CST 7:03 PM CST
Moon 2:46 PM CST (1/23) 4:35 AM CST (1/23)
Length of Visible Light 11h 05m
Length of Day
10h 10m
Waxing Gibbous, 89% of the Moon is Illuminated
Jan 23
Waxing Gibbous
Jan 26
Full
Feb 3
Last Quarter
Feb 10
New
Feb 17
First Quarter

Hourly Weather History & Observations

Time (CST) Temp. Windchill Dew Point Humidity Pressure Visibility Wind Dir Wind Speed Gust Speed Precip Events Conditions
12:53 AM 28.0 °F 22.8 °F 21.9 °F 78% 30.25 in 10.0 mi South 4.6 mph - N/A   Clear
1:53 AM 28.0 °F 24.2 °F 21.9 °F 78% 30.24 in 10.0 mi South 3.5 mph - N/A   Clear
2:53 AM 26.1 °F - 21.9 °F 84% 30.25 in 10.0 mi Calm Calm - N/A   Clear
3:53 AM 27.0 °F - 21.9 °F 81% 30.24 in 10.0 mi Calm Calm - N/A   Clear
4:53 AM 27.0 °F 23.0 °F 21.9 °F 81% 30.24 in 10.0 mi South 3.5 mph - N/A   Clear
5:53 AM 26.1 °F - 23.0 °F 88% 30.23 in 10.0 mi Calm Calm - N/A   Clear
6:53 AM 26.1 °F - 23.0 °F 88% 30.24 in 10.0 mi Calm Calm - N/A   Clear
7:53 AM 28.0 °F - 24.1 °F 85% 30.26 in 10.0 mi Calm Calm - N/A   Clear
8:53 AM 35.1 °F - 30.0 °F 82% 30.26 in 10.0 mi Calm Calm - N/A   Clear
9:53 AM 44.1 °F 41.5 °F 36.0 °F 73% 30.26 in 10.0 mi South 4.6 mph - N/A   Clear
10:53 AM 50.0 °F - 39.0 °F 66% 30.25 in 10.0 mi SW 11.5 mph - N/A   Clear
11:53 AM 53.1 °F - 41.0 °F 64% 30.22 in 10.0 mi West 11.5 mph - N/A   Clear
12:53 PM 55.9 °F - 42.1 °F 60% 30.18 in 10.0 mi SSW 8.1 mph - N/A   Clear
1:53 PM 57.0 °F - 42.1 °F 57% 30.16 in 10.0 mi SW 5.8 mph - N/A   Clear
2:53 PM 59.0 °F - 42.1 °F 53% 30.16 in 10.0 mi WSW 6.9 mph - N/A   Clear
3:53 PM 59.0 °F - 41.0 °F 51% 30.15 in 10.0 mi WSW 9.2 mph - N/A   Clear
4:53 PM 57.0 °F - 42.1 °F 57% 30.15 in 10.0 mi WSW 4.6 mph - N/A   Clear
5:53 PM 52.0 °F - 41.0 °F 66% 30.17 in 10.0 mi WSW 4.6 mph - N/A   Clear
6:53 PM 46.0 °F 44.8 °F 39.9 °F 79% 30.18 in 10.0 mi West 3.5 mph - N/A   Clear
7:53 PM 46.9 °F - 39.9 °F 77% 30.20 in 10.0 mi Calm Calm - N/A   Clear
8:53 PM 45.0 °F 42.6 °F 39.9 °F 82% 30.21 in 10.0 mi North 4.6 mph - N/A   Clear
9:53 PM 44.1 °F 40.8 °F 39.0 °F 82% 30.23 in 10.0 mi NNE 5.8 mph - N/A   Scattered Clouds
10:53 PM 44.1 °F 39.5 °F 37.9 °F 79% 30.24 in 10.0 mi NE 8.1 mph - N/A   Overcast
11:53 PM 43.0 °F 36.8 °F 35.1 °F 74% 30.25 in 10.0 mi NNE 11.5 mph - N/A   Overcast